Location: Utrecht
(52.0907°N, 5.1214°E)
Time: 09:30:48
(UTC+02:00)

MOZHAYETS 4 - Pass Details

Date: 06 July 2022
Orbit: 660 x 679 km, 98.2° (Epoch: 09 August)

Event Time Altitude Azimuth Distance (km) Brightness Sun altitude
Exits shadow 04:06:25 - 175° (S) 2,516 10.2 -9.0°
Reaches altitude 10° 04:07:27 10° 177° (S) 2,104 9.8 -8.9°
Maximum altitude 04:12:00 61° 258° (WSW) 765 7.8 -8.5°
Drops below altitude 10° 04:16:34 10° 339° (NNW) 2,109 10.8 -8.1°
Sets 04:18:50 0° 343° (NNW) 3,024 11.7 -7.9°
